Regional Weather Roundup
Issued by NWS State College, PA

Home | Current Version | Previous Version | Graphics & Text | Print | Product List | Glossary On
Versions: 1 2 3 4 5 6 7 8 9 10 11 12 13 14 15 16 17 18 19 20 21 22 23 24 25 26 27 28 29 30 31 32 33 34 35 36 37 38 39 40 41 42 43 44 45 46 47 48 49 50
000
ASUS41 KCTP 011010
RWRCTP

REGIONAL WEATHER ROUNDUP
NATIONAL WEATHER SERVICE STATE COLLEGE PA
600 AM EDT WED JUL 01 2015

Note: "fair" indicates few or no clouds below 12,000 feet with no
significant weather and/or obstructions to visibility.

* = STATION THAT DOES NOT REPORT PRECIPITATION /E.G. RAIN...SNOW...ETC/
    THUNDER OR FOG.

PAZ002>004-007>009-013>016-020>023-029>032-011100-
WESTERN PENNSYLVANIA

CITY           SKY/WX    TMP DP  RH WIND       PRES   REMARKS
ERIE           RAIN      65  61  87 W9        29.77R FOG
MEADVILLE      CLOUDY    63  60  90 SW6       29.81R FOG
FRANKLIN*      CLOUDY    61  57  88 SW7       29.83S
NEW CASTLE     CLOUDY    63  63 100 SW5       29.84R
BEAVER COUNTY  NOT AVBL
BUTLER*        CLOUDY    61  59  94 SW6       29.85S
PITTSBURGH INT CLOUDY    62  59  90 SW6       29.84S FOG
PITTSBURGH     CLOUDY    60  56  86 S7        29.86R FOG
INDIANA*       CLOUDY    61  61 100 SW7G14    29.89R
LATROBE        NOT AVBL
WASHINGTON CO* NOT AVBL
$$

PAZ004>006-010>012-017>019-024>028-033>037-041-042-045-046-049>053-011100-
CENTRAL PENNSYLVANIA

CITY           SKY/WX    TMP DP  RH WIND       PRES   REMARKS
BRADFORD       CLOUDY    60  58  92 SW6       29.82S
DUBOIS         CLOUDY    61  58  90 SW8       29.83R FOG
CLEARFIELD     CLOUDY    61  58  90 SW8       29.84S FOG
JOHNSTOWN      CLOUDY    58  54  86 SW8       29.88R
ALTOONA        CLOUDY    61  54  77 SW6       29.86S
STATE COLLEGE  CLOUDY    61  59  94 SW5       29.83S
WILLIAMSPORT   CLOUDY    63  61  93 CALM      29.78S
SELINSGROVE    CLOUDY    66  62  87 CALM      29.81F
FT INDIANTOWN  CLOUDY    66  65  96 SW5       29.81R
CAPITAL CITY   CLOUDY    66  63  90 SW6       29.80F
HARRISBURG     CLOUDY    68  63  84 CALM      29.79F
YORK           CLOUDY    67  63  87 CALM      29.83R
$$

PAZ038>040-043-044-047-048-054-055-060>062-067>071-011100-
EASTERN PENNSYLVANIA

CITY           SKY/WX    TMP DP  RH WIND       PRES   REMARKS
SCRANTON       CLOUDY    65  63  93 SW7       29.78S FOG
MOUNT POCONO   CLOUDY    63  61  93 W8        29.79F
ALLENTOWN      CLOUDY    66  64  94 W9        29.78S
QUAKERTOWN*    CLOUDY    66  64  94 W5        29.80R
READING        CLOUDY    67  64  90 CALM      29.78S
LANCASTER      CLOUDY    66  64  93 W8        29.81R
COATESVILLE    CLOUDY    66  66 100 W5        29.82R
POTTSTOWN      CLOUDY    66  65  96 SW3       29.80R
BLUE BELL      CLOUDY    68  66  94 CALM      29.79R
DOYLESTOWN     CLOUDY    64  64 100 S6        29.78R
WILLOW GROVE   NOT AVBL
NORTH PHILA    CLOUDY    69  63  81 SW6       29.79F
PHILADELPHIA   CLOUDY    70  65  84 SW9       29.78F
$$



USA.gov is the U.S. government's official web portal to all federal, state and local government web resources and services.